sat.trackr.live / text

‹ back to catalog

STARLINK-30822

NORAD 58193 · 2023-167U

PAYLOAD ACTIVE UNKNOWN

§ Identity

Operator
Country
US
Launch date
2023-10-30
Launch site
AFETR
Launch vehicle
Mass (kg)
RCS (m²)

Purposes: comms

External: N2YO · Heavens-Above · Gunter

§ Orbital elements

Epoch: 2026-05-25T01:43:47.324928Z

Period
94.27 min
Inclination
43.0070°
Eccentricity
0.0003051
Mean motion
15.27595617 rev/d
Perigee alt
480.9 km
Apogee alt
485.1 km
Semi-major
6,861.1 km
B*
1.0894e-4
RAAN
72.2999°
Arg perigee
293.1946°
Mean anomaly
66.8584°
Rev number
14,266

§ Raw data

STARLINK-308221 58193U 23167U   26145.07207552  .00002738  00000+0  10894-3 0  99952 58193  43.0070  72.2999 0003051 293.1946  66.8584 15.27595617142667

JSON: /api/v1/satellites/58193 · /tle

For live sub-satellite position, see the globe view (requires WebGL).

§ Visibility from observer

Set your observer location to see the next 7 days of passes ≥ 10°. The values pass through the URL so the page stays shareable.

No JS? Fill the form by hand. The geolocation button needs JavaScript.